Regional Weather Roundup
Issued by NWS

Home | Current Version | Previous Version | Text Only | Print | Product List | Glossary Off
Versions: 1 2 3 4 5 6 7 8 9 10 11 12 13 14 15 16 17 18 19 20 21 22 23 24 25 26 27 28 29 30 31 32 33 34 35 36 37 38 39 40 41 42 43 44 45 46 47 48 49 50

173
ASUS45 KCYS 041310
RWRWY

WYOMING REGIONAL WEATHER ROUNDUP
NATIONAL WEATHER SERVICE CHEYENNE WY
600 AM MST SUN DEC 04 2016

NOTE:  "FAIR" INDICATES FEW OR NO CLOUDS BELOW 12,000 FEET
WITH NO SIGNIFICANT WEATHER AND/OR OBSTRUCTIONS TO VISIBILITY.

WYZ001-041400-
YELLOWSTONE NATIONAL PARK

CITY           SKY/WX    TMP DP  RH WIND       PRES   REMARKS
LK YELLOWSTONE   N/A     20  17  88 VRB6      29.91F WCI  12
W YELLOWSTONE  NOT AVBL

$$
WYZ002>013-054>058-071-098>099-041400-
NORTHERN WYOMING

CITY           SKY/WX    TMP DP  RH WIND       PRES   REMARKS
JACKSON        CLOUDY    25  23  93 S15       29.97F WCI  12
CODY           FAIR      34  19  54 W17       29.85F WCI  23
GREYBULL       CLOUDY    26  16  65 SE8       29.90F WCI  18
WORLAND        FAIR      25  16  68 S7        29.89F WCI  17
SHERIDAN       MOCLDY    25  15  66 S8        29.84F WCI  16
BUFFALO        MOCLDY    28  11  48 SW5       29.85F WCI  23
GILLETTE       FAIR      27  13  55 SW17      29.86F WCI  14
HULETT         FAIR      28  19  69 S10       29.87F WCI  19
NEWCASTLE      FAIR      21  18  86 E3        29.93S

$$
WYZ014>020-022>026-101>103-041400-
CENTRAL WYOMING

CITY           SKY/WX    TMP DP  RH WIND       PRES   REMARKS
BIG PINEY      FAIR       8   5  87 CALM      30.03S
PINEDALE       FLURRIES  12  12 100 N6        30.03F WCI   3
DUBOIS         FLURRIES  23  18  80 N16G24    29.88S WCI  10
LANDER         FAIR      15   7  70 CALM      29.91F
RIVERTON       FAIR      19   9  65 SW10      29.91F WCI   7
CASPER         FAIR      20  13  74 SW13      29.94F WCI   7
DOUGLAS        FAIR      23  11  60 CALM      29.95F

$$
WYZ021-027>030-104>119-041400-
SOUTHERN WYOMING

CITY           SKY/WX    TMP DP  RH WIND       PRES   REMARKS
EVANSTON       FAIR      19  12  74 SW15      30.09F WCI   5
FORT BRIDGER   FAIR      24  17  74 W15       30.10S WCI  11
ROCK SPRINGS   FAIR      20  14  77 SW15      30.06F WCI   6
DIXON          FAIR      11   7  85 CALM      30.16R
RAWLINS        CLOUDY    22  12  65 CALM      30.00F
SARATOGA       FAIR      23  12  63 SW13G18   30.05R WCI  11
LARAMIE        FAIR      17   8  67 SW17      29.95S WCI   1
CHEYENNE       FAIR      25   8  48 W22       29.95S WCI  10
TORRINGTON     FAIR      26  14  60 NW6       29.97S WCI  19
PINE BLUFFS    FAIR      16   9  73 W5        29.99F WCI   9

$$




USA.gov is the U.S. government's official web portal to all federal, state and local government web resources and services.